sat.trackr.live / text

‹ back to catalog

ONEWEB-0605

NORAD 54669 · 2022-166AD

PAYLOAD ACTIVE UNKNOWN

§ Identity

Operator
Country
UK
Launch date
2022-12-08
Launch site
AFETR
Launch vehicle
Mass (kg)
RCS (m²)

Purposes: comms

External: N2YO · Heavens-Above · Gunter

§ Orbital elements

Epoch: 2026-09-19T14:34:10.477344Z

Period
108.94 min
Inclination
87.9277°
Eccentricity
0.0002255
Mean motion
13.21825154 rev/d
Perigee alt
1,176.1 km
Apogee alt
1,179.5 km
Semi-major
7,555.9 km
B*
1.9448e-4
RAAN
225.1918°
Arg perigee
95.6122°
Mean anomaly
264.5269°
Rev number
18,398

§ Raw data

ONEWEB-06051 54669U 22166AD  26262.60706571  .00000093  00000+0  19448-3 0  99972 54669  87.9277 225.1918 0002255  95.6122 264.5269 13.21825154183984

JSON: /api/v1/satellites/54669 · /tle

For live sub-satellite position, see the globe view (requires WebGL).

§ Visibility from observer

Set your observer location to see the next 7 days of passes ≥ 10°. The values pass through the URL so the page stays shareable.

No JS? Fill the form by hand. The geolocation button needs JavaScript.